AMC-14

Last updated on Fri Jun 19 2026 17:09:30 GMT+0000 (Coordinated Universal Time)

1 32708U 08011A 26170.12193858 -.00000066 00000+0 00000+0 0 9994 2 32708 24.0066 20.4956 0045536 7.3027 349.6077 1.00355279 68189
UTC large
Height (km)
Speed (km/s)
/
Latitude / Longitude
Inclination (degrees)
Orbital Period (minutes)
Azimuth
Elevation
Range (km)
Doppler Factor

Next 0 passes for location: London (51.5072 / 0.1276)

Sorry there are no passes over London.
AMC-14